AISSAT 1 (36797 NORAD) Tracking and Keplerian Element Data

This shows tracking and keplerian element data for the satellite.

Feedback or suggestion? Click here.




ElementValue
Catalog36797
NameAISSAT 1
Epoch Orbit66985
Epoch Day325.07545683
Epoch Year2022
RAAN154.8633
Inclination98.2352
Eccentricity0.0011484
Argument of Perigee26.8376
Mean Anonmoly333.3431
Mean Motion14.87531012
Decay Rate1.162E-05
L11 36797U 10035C 22325.07545683 .00001162 00000+0 13456-3 0 9994
L22 36797 98.2352 154.8633 0011484 26.8376 333.3431 14.87531012669859



Live tracking and technical data element details for AISSAT 1 (NORAD 36797). AISSAT 1 can be tracked NOW for your location showing map with azimuth and elevation plus other details from your city location.







IsCatalogInMostPopularTable: catalog: 36797, numindb: 25081
Update: records affected: 1



GetName: 36797 AISSAT 1

Hit Count: updated at: Sun, 04 Dec 2022 21:48:51 GMT